Location: Dennehotso
(36.8461°N, 109.8435°W)
Time: 13:41:57
(UTC+00:00)

Envisat - Pass Details

Date: 13 March 2021
Orbit: 764 x 766 km, 98.1° (Epoch: 17 April)

Event Time Altitude Azimuth Distance (km) Brightness Sun altitude
Rises 12:10:14 0° 24° (NNE) 3,237 6.7 -17.3°
Reaches altitude 10° 12:12:49 10° 35° (NE) 2,306 6.1 -16.8°
Maximum altitude 12:17:15 30° 96° (E) 1,346 5.0 -15.9°
Drops below altitude 10° 12:21:39 10° 157° (SSE) 2,291 5.6 -15.0°
Sets 12:24:12 0° 168° (SSE) 3,213 6.3 -14.5°
